GJS4603 KIAD-KPWM

Flight info

Callsign GJS4603
Flight time 1h 15m
Altitude 29000
Route JERES2 JERES Q221 BIGEO J49 HNK CAM CDOGG4
Aircraft CRJ7/M-VGDW/C

Departure

Time 2026-04-25 22:30
Airport Washington Dulles International Airport (KIAD)

Arrival

Time 2026-04-25 23:45
Airport Portland International Jetport (KPWM)
Time Latitude Longitude Altitude Speed Heading
2026-04-25 22:02 38.94778 -77.44307 298 ft 0 kts 326°
2026-04-25 22:14 38.94778 -77.44306 298 ft 0 kts 326°
2026-04-25 22:15 38.94776 -77.44305 298 ft 0 kts 326°
2026-04-25 22:15 38.94775 -77.44304 298 ft 0 kts 326°
2026-04-25 22:15 38.94773 -77.44302 298 ft 0 kts 326°
2026-04-25 22:16 38.94768 -77.44298 302 ft 0 kts 326°
2026-04-25 22:16 38.94767 -77.44297 301 ft 0 kts 326°
2026-04-25 22:16 38.94765 -77.44295 301 ft 0 kts 326°
2026-04-25 22:16 38.94763 -77.44293 301 ft 0 kts 326°
2026-04-25 22:17 38.94761 -77.44292 300 ft 0 kts 326°
2026-04-25 22:17 38.94759 -77.44290 300 ft 0 kts 326°
2026-04-25 22:17 38.94747 -77.44279 298 ft 3 kts 326°
2026-04-25 22:17 38.94732 -77.44266 298 ft 3 kts 326°
2026-04-25 22:18 38.94718 -77.44253 300 ft 3 kts 326°
2026-04-25 22:18 38.94711 -77.44248 301 ft 0 kts 326°
2026-04-25 22:21 38.94713 -77.44250 299 ft 3 kts 315°
2026-04-25 22:21 38.94721 -77.44290 298 ft 5 kts 268°
2026-04-25 22:22 38.94721 -77.44352 298 ft 10 kts 270°
2026-04-25 22:22 38.94722 -77.44450 298 ft 12 kts 271°
2026-04-25 22:22 38.94723 -77.44558 298 ft 13 kts 271°
2026-04-25 22:22 38.94724 -77.44684 298 ft 16 kts 271°
2026-04-25 22:23 38.94726 -77.44836 302 ft 17 kts 271°
2026-04-25 22:23 38.94727 -77.44991 300 ft 17 kts 271°
2026-04-25 22:23 38.94729 -77.45144 298 ft 17 kts 271°
2026-04-25 22:23 38.94730 -77.45296 298 ft 17 kts 271°
2026-04-25 22:24 38.94732 -77.45443 298 ft 16 kts 271°
2026-04-25 22:24 38.94739 -77.45588 299 ft 16 kts 287°
2026-04-25 22:24 38.94774 -77.45710 298 ft 12 kts 329°
2026-04-25 22:24 38.94878 -77.45720 300 ft 18 kts
2026-04-25 22:25 38.95023 -77.45718 300 ft 23 kts
2026-04-25 22:25 38.95187 -77.45715 300 ft 24 kts
2026-04-25 22:25 38.95357 -77.45713 300 ft 25 kts
2026-04-25 22:25 38.95530 -77.45710 301 ft 25 kts
2026-04-25 22:26 38.95704 -77.45706 300 ft 25 kts
2026-04-25 22:26 38.95880 -77.45705 299 ft 26 kts
2026-04-25 22:26 38.96062 -77.45703 300 ft 27 kts
2026-04-25 22:26 38.96250 -77.45700 300 ft 27 kts
2026-04-25 22:27 38.96438 -77.45697 300 ft 26 kts
2026-04-25 22:27 38.96604 -77.45694 298 ft 22 kts
2026-04-25 22:27 38.96742 -77.45692 299 ft 18 kts
2026-04-25 22:27 38.96852 -77.45691 300 ft 15 kts
2026-04-25 22:28 38.96965 -77.45692 302 ft 17 kts 349°
2026-04-25 22:28 38.97021 -77.45751 299 ft 6 kts 274°
2026-04-25 22:28 38.97015 -77.45802 303 ft 8 kts 263°
2026-04-25 22:28 38.97010 -77.45869 301 ft 6 kts 261°
2026-04-25 22:29 38.96929 -77.45930 301 ft 28 kts 185°
2026-04-25 22:29 38.96551 -77.45936 299 ft 84 kts 181°
2026-04-25 22:29 38.95790 -77.45944 300 ft 133 kts 179°
2026-04-25 22:30 38.93696 -77.46028 1135 ft 149 kts 179°
2026-04-25 22:30 38.92644 -77.46209 1624 ft 162 kts 199°
2026-04-25 22:30 38.91832 -77.47302 1918 ft 186 kts 246°
2026-04-25 22:30 38.91697 -77.48417 2135 ft 199 kts 273°
2026-04-25 22:31 38.92534 -77.50723 2585 ft 231 kts 306°
2026-04-25 22:31 38.93556 -77.52434 3270 ft 248 kts 308°
2026-04-25 22:31 38.94679 -77.54178 4126 ft 255 kts 309°
2026-04-25 22:31 38.95841 -77.55919 5096 ft 258 kts 309°
2026-04-25 22:32 38.97035 -77.57665 6021 ft 261 kts 310°
2026-04-25 22:32 38.98240 -77.59395 6908 ft 265 kts 310°
2026-04-25 22:32 38.99544 -77.61078 7756 ft 270 kts 323°
2026-04-25 22:32 39.01355 -77.61774 8594 ft 281 kts 359°
2026-04-25 22:33 39.03258 -77.61072 9449 ft 290 kts 22°
2026-04-25 22:33 39.05114 -77.60003 10248 ft 293 kts 19°
2026-04-25 22:33 39.07043 -77.59128 11002 ft 295 kts 12°
2026-04-25 22:33 39.09044 -77.58547 11769 ft 295 kts
2026-04-25 22:34 39.11085 -77.58229 12557 ft 296 kts
2026-04-25 22:34 39.13150 -77.58088 13363 ft 295 kts 358°
2026-04-25 22:34 39.15225 -77.58013 13857 ft 310 kts 357°
2026-04-25 22:34 39.17466 -77.57943 13876 ft 334 kts 358°
2026-04-25 22:35 39.19858 -77.57838 13916 ft 354 kts 359°
2026-04-25 22:35 39.22390 -77.57705 14040 ft 371 kts 359°
2026-04-25 22:35 39.24988 -77.57568 14508 ft 375 kts 359°
2026-04-25 22:35 39.27603 -77.57428 15037 ft 378 kts 359°
2026-04-25 22:36 39.30212 -77.57292 15516 ft 382 kts 359°
2026-04-25 22:36 39.32877 -77.57153 15993 ft 385 kts 359°
2026-04-25 22:36 39.35561 -77.57011 16466 ft 388 kts 359°
2026-04-25 22:36 39.38266 -77.56861 16914 ft 390 kts 360°
2026-04-25 22:37 39.40976 -77.56338 17306 ft 398 kts 11°
2026-04-25 22:37 39.43635 -77.55265 17749 ft 402 kts 17°
2026-04-25 22:37 39.46269 -77.53973 18156 ft 405 kts 18°
2026-04-25 22:37 39.48870 -77.52668 18506 ft 407 kts 18°
2026-04-25 22:38 39.51523 -77.51359 18851 ft 409 kts 17°
2026-04-25 22:38 39.54207 -77.50112 19167 ft 410 kts 16°
2026-04-25 22:38 39.56904 -77.48874 19461 ft 413 kts 17°
2026-04-25 22:38 39.59614 -77.47623 19747 ft 414 kts 17°
2026-04-25 22:39 39.62341 -77.46359 20051 ft 416 kts 17°
2026-04-25 22:39 39.65131 -77.45429 20253 ft 413 kts
2026-04-25 22:39 39.67994 -77.45217 20538 ft 411 kts 358°
2026-04-25 22:39 39.70861 -77.45248 20816 ft 412 kts 356°
2026-04-25 22:40 39.73732 -77.45302 21077 ft 413 kts 356°
2026-04-25 22:40 39.76617 -77.45336 21331 ft 415 kts 357°
2026-04-25 22:40 39.79469 -77.45302 21581 ft 416 kts 358°
2026-04-25 22:40 39.82375 -77.45257 21814 ft 417 kts 358°
2026-04-25 22:41 39.85289 -77.45210 22027 ft 419 kts 358°
2026-04-25 22:41 39.88210 -77.45161 22269 ft 419 kts 358°
2026-04-25 22:41 39.91132 -77.45110 22459 ft 420 kts 358°
2026-04-25 22:41 39.94063 -77.45062 22795 ft 421 kts 358°
2026-04-25 22:42 39.96968 -77.45004 23218 ft 424 kts 358°
2026-04-25 22:42 39.99930 -77.44927 23617 ft 426 kts 358°
2026-04-25 22:42 40.02904 -77.44845 23964 ft 428 kts 358°
2026-04-25 22:42 40.05888 -77.44764 24301 ft 430 kts 358°
2026-04-25 22:43 40.08887 -77.44706 24622 ft 431 kts 357°
2026-04-25 22:43 40.11889 -77.44658 24960 ft 433 kts 357°
2026-04-25 22:43 40.14905 -77.44596 25258 ft 434 kts 357°
2026-04-25 22:43 40.17942 -77.44546 25557 ft 436 kts 357°
2026-04-25 22:44 40.20987 -77.44501 25829 ft 438 kts 357°
2026-04-25 22:44 40.24043 -77.44448 26073 ft 441 kts 357°
2026-04-25 22:44 40.27115 -77.44396 26358 ft 441 kts 357°
2026-04-25 22:44 40.30183 -77.44350 26700 ft 440 kts 357°
2026-04-25 22:45 40.33242 -77.44294 27060 ft 439 kts 356°
2026-04-25 22:45 40.36218 -77.44243 27441 ft 438 kts 356°
2026-04-25 22:45 40.39337 -77.44189 27814 ft 437 kts 356°
2026-04-25 22:45 40.42330 -77.44137 28136 ft 436 kts 356°
2026-04-25 22:46 40.45362 -77.44085 28449 ft 435 kts 356°
2026-04-25 22:46 40.48383 -77.44035 28750 ft 435 kts 356°
2026-04-25 22:46 40.51416 -77.43982 28879 ft 433 kts 356°
2026-04-25 22:46 40.54423 -77.43930 28939 ft 432 kts 356°
2026-04-25 22:47 40.60434 -77.43822 28962 ft 433 kts 356°
2026-04-25 22:47 40.66452 -77.43726 28972 ft 431 kts 356°
2026-04-25 22:48 40.72420 -77.43623 28973 ft 430 kts 356°
2026-04-25 22:48 40.78408 -77.43515 28972 ft 430 kts 356°
2026-04-25 22:49 40.84382 -77.43397 28978 ft 429 kts 356°
2026-04-25 22:49 40.90341 -77.43302 28973 ft 428 kts 356°
2026-04-25 22:50 40.96291 -77.43201 28967 ft 427 kts 356°
2026-04-25 22:50 41.02218 -77.43100 28971 ft 426 kts 356°
2026-04-25 22:51 41.08146 -77.42996 28978 ft 425 kts 356°
2026-04-25 22:51 41.11094 -77.42478 28966 ft 434 kts 12°
2026-04-25 22:51 41.13844 -77.40732 28980 ft 444 kts 28°
2026-04-25 22:52 41.18697 -77.35656 28980 ft 449 kts 35°
2026-04-25 22:52 41.22410 -77.30707 28976 ft 459 kts 49°
2026-04-25 22:53 41.25919 -77.21877 29011 ft 465 kts 57°
2026-04-25 22:53 41.29053 -77.14393 29001 ft 461 kts 53°
2026-04-25 22:54 41.32296 -77.07096 29002 ft 460 kts 53°
2026-04-25 22:54 41.35509 -76.99726 28995 ft 460 kts 54°
2026-04-25 22:55 41.38687 -76.92349 28998 ft 459 kts 53°
2026-04-25 22:55 41.41875 -76.84971 29019 ft 459 kts 53°
2026-04-25 22:56 41.45051 -76.77602 29002 ft 458 kts 53°
2026-04-25 22:56 41.48215 -76.70236 28994 ft 457 kts 53°
2026-04-25 22:57 41.51369 -76.62878 29001 ft 457 kts 53°
2026-04-25 22:57 41.54501 -76.55555 29001 ft 456 kts 53°
2026-04-25 22:58 41.57637 -76.48195 29010 ft 455 kts 53°
2026-04-25 22:58 41.60763 -76.40843 29012 ft 454 kts 53°
2026-04-25 22:59 41.63881 -76.33500 29018 ft 454 kts 53°
2026-04-25 22:59 41.66991 -76.26151 29017 ft 453 kts 52°
2026-04-25 23:00 41.70072 -76.18853 29022 ft 452 kts 52°
2026-04-25 23:00 41.73158 -76.11522 29030 ft 451 kts 52°
2026-04-25 23:01 41.76234 -76.04204 29024 ft 450 kts 52°
2026-04-25 23:01 41.79295 -75.96892 29042 ft 449 kts 52°
2026-04-25 23:02 41.82351 -75.89586 29043 ft 449 kts 52°
2026-04-25 23:02 41.85399 -75.82278 29044 ft 448 kts 52°
2026-04-25 23:03 41.87929 -75.76209 29052 ft 447 kts 51°
2026-04-25 23:03 41.91450 -75.67740 29056 ft 447 kts 52°
2026-04-25 23:04 41.93972 -75.61629 29068 ft 446 kts 52°
2026-04-25 23:04 41.96971 -75.54377 29058 ft 446 kts 52°
2026-04-25 23:05 41.99977 -75.47089 29058 ft 446 kts 52°
2026-04-25 23:05 42.02973 -75.39800 29066 ft 445 kts 52°
2026-04-25 23:06 42.05968 -75.32506 29056 ft 444 kts 51°
2026-04-25 23:06 42.09229 -75.25480 29074 ft 440 kts 46°
2026-04-25 23:07 42.12667 -75.18621 29056 ft 442 kts 46°
2026-04-25 23:07 42.16063 -75.11688 29083 ft 444 kts 47°
2026-04-25 23:08 42.19453 -75.04714 29058 ft 445 kts 47°
2026-04-25 23:08 42.22840 -74.97705 29065 ft 446 kts 47°
2026-04-25 23:09 42.26213 -74.90708 29058 ft 448 kts 47°
2026-04-25 23:09 42.29612 -74.83638 29064 ft 448 kts 47°
2026-04-25 23:10 42.33014 -74.76550 29088 ft 450 kts 47°
2026-04-25 23:10 42.36417 -74.69428 29070 ft 451 kts 47°
2026-04-25 23:11 42.39827 -74.62295 29081 ft 452 kts 47°
2026-04-25 23:11 42.43236 -74.55129 29074 ft 453 kts 47°
2026-04-25 23:12 42.46628 -74.47996 29073 ft 453 kts 47°
2026-04-25 23:12 42.50043 -74.40789 29086 ft 454 kts 47°
2026-04-25 23:13 42.53457 -74.33570 29070 ft 454 kts 47°
2026-04-25 23:13 42.56858 -74.26359 29087 ft 454 kts 47°
2026-04-25 23:14 42.60242 -74.19166 29080 ft 455 kts 47°
2026-04-25 23:14 42.63652 -74.11903 29103 ft 456 kts 47°
2026-04-25 23:15 42.67057 -74.04629 29092 ft 456 kts 48°
2026-04-25 23:15 42.70462 -73.97342 29089 ft 457 kts 48°
2026-04-25 23:16 42.73868 -73.90036 29099 ft 457 kts 48°
2026-04-25 23:16 42.77248 -73.82765 29099 ft 458 kts 48°
2026-04-25 23:17 42.80647 -73.75436 29093 ft 458 kts 49°
2026-04-25 23:17 42.84046 -73.68090 29089 ft 459 kts 49°
2026-04-25 23:18 42.87449 -73.60713 29098 ft 459 kts 50°
2026-04-25 23:18 42.90845 -73.53331 29079 ft 460 kts 50°
2026-04-25 23:19 42.94250 -73.45915 29069 ft 461 kts 50°
2026-04-25 23:19 42.97656 -73.38474 29052 ft 462 kts 51°
2026-04-25 23:20 43.00464 -73.30535 29042 ft 474 kts 64°
2026-04-25 23:20 43.02339 -73.21843 29076 ft 478 kts 69°
2026-04-25 23:21 43.04172 -73.13102 29065 ft 477 kts 67°
2026-04-25 23:21 43.06105 -73.04407 29064 ft 478 kts 68°
2026-04-25 23:22 43.08028 -72.95701 29064 ft 478 kts 68°
2026-04-25 23:23 43.10916 -72.82565 28291 ft 482 kts 68°
2026-04-25 23:23 43.11878 -72.78171 27819 ft 482 kts 68°
2026-04-25 23:23 43.12837 -72.73778 27356 ft 482 kts 68°
2026-04-25 23:23 43.13800 -72.69366 26895 ft 482 kts 68°
2026-04-25 23:24 43.14756 -72.64968 26445 ft 480 kts 68°
2026-04-25 23:24 43.15695 -72.60648 26009 ft 478 kts 68°
2026-04-25 23:24 43.16638 -72.56297 25575 ft 476 kts 68°
2026-04-25 23:24 43.17576 -72.51949 25148 ft 475 kts 68°
2026-04-25 23:25 43.18515 -72.47619 24733 ft 473 kts 68°
2026-04-25 23:25 43.19446 -72.43297 24313 ft 473 kts 68°
2026-04-25 23:25 43.20369 -72.38983 23905 ft 472 kts 68°
2026-04-25 23:25 43.21292 -72.34675 23472 ft 471 kts 68°
2026-04-25 23:26 43.22213 -72.30375 22994 ft 463 kts 68°
2026-04-25 23:26 43.23101 -72.26226 22503 ft 446 kts 68°
2026-04-25 23:26 43.23955 -72.22216 22020 ft 431 kts 68°
2026-04-25 23:26 43.24784 -72.18320 21559 ft 419 kts 68°
2026-04-25 23:27 43.25590 -72.14539 21171 ft 407 kts 68°
2026-04-25 23:27 43.26368 -72.10862 20795 ft 396 kts 68°
2026-04-25 23:27 43.27126 -72.07274 20417 ft 388 kts 68°
2026-04-25 23:27 43.27879 -72.03725 20040 ft 387 kts 68°
2026-04-25 23:28 43.28628 -72.00179 19648 ft 388 kts 68°
2026-04-25 23:28 43.29381 -71.96612 19288 ft 391 kts 68°
2026-04-25 23:28 43.30130 -71.93033 18941 ft 387 kts 68°
2026-04-25 23:28 43.30868 -71.89502 18597 ft 382 kts 68°
2026-04-25 23:29 43.31598 -71.86017 18235 ft 378 kts 68°
2026-04-25 23:29 43.32317 -71.82570 17822 ft 373 kts 69°
2026-04-25 23:29 43.33027 -71.79166 17429 ft 369 kts 69°
2026-04-25 23:29 43.33730 -71.75791 17042 ft 365 kts 69°
2026-04-25 23:30 43.34417 -71.72489 16655 ft 362 kts 69°
2026-04-25 23:30 43.35106 -71.69181 16264 ft 359 kts 69°
2026-04-25 23:30 43.35787 -71.65897 15894 ft 357 kts 69°
2026-04-25 23:30 43.36467 -71.62618 15547 ft 355 kts 69°
2026-04-25 23:31 43.37139 -71.59366 15208 ft 352 kts 69°
2026-04-25 23:31 43.37811 -71.56136 14716 ft 350 kts 72°
2026-04-25 23:31 43.38511 -71.52929 14385 ft 349 kts 71°
2026-04-25 23:31 43.39194 -71.49728 14054 ft 349 kts 72°
2026-04-25 23:32 43.39861 -71.46518 13701 ft 348 kts 72°
2026-04-25 23:32 43.40520 -71.43319 13332 ft 347 kts 72°
2026-04-25 23:32 43.41176 -71.40127 12972 ft 346 kts 72°
2026-04-25 23:32 43.41824 -71.36957 12629 ft 344 kts 72°
2026-04-25 23:33 43.42470 -71.33797 12277 ft 342 kts 72°
2026-04-25 23:33 43.43110 -71.30660 11935 ft 340 kts 72°
2026-04-25 23:33 43.43733 -71.27582 11603 ft 337 kts 73°
2026-04-25 23:33 43.44362 -71.24484 11296 ft 334 kts 73°
2026-04-25 23:34 43.44980 -71.21445 11149 ft 326 kts 73°
2026-04-25 23:34 43.45583 -71.18474 11078 ft 318 kts 73°
2026-04-25 23:34 43.46184 -71.15551 11032 ft 315 kts 72°
2026-04-25 23:34 43.46831 -71.12680 11004 ft 313 kts 71°
2026-04-25 23:35 43.47528 -71.09842 10705 ft 313 kts 69°
2026-04-25 23:35 43.48277 -71.07033 10329 ft 312 kts 68°
2026-04-25 23:35 43.49036 -71.04245 9929 ft 309 kts 68°
2026-04-25 23:35 43.49792 -71.01490 9507 ft 305 kts 68°
2026-04-25 23:36 43.50530 -70.98806 9087 ft 302 kts 68°
2026-04-25 23:36 43.51027 -70.96992 8805 ft 295 kts 68°
2026-04-25 23:36 43.51955 -70.93589 8244 ft 278 kts 68°
2026-04-25 23:36 43.52632 -70.91112 7837 ft 274 kts 68°
2026-04-25 23:37 43.53295 -70.88657 7439 ft 273 kts 69°
2026-04-25 23:37 43.53982 -70.86236 7036 ft 270 kts 64°
2026-04-25 23:37 43.54794 -70.83910 6684 ft 267 kts 63°
2026-04-25 23:37 43.55646 -70.81654 6402 ft 263 kts 61°
2026-04-25 23:38 43.56496 -70.79463 6066 ft 260 kts 61°
2026-04-25 23:38 43.57349 -70.77287 5696 ft 256 kts 60°
2026-04-25 23:38 43.58193 -70.75139 5333 ft 253 kts 60°
2026-04-25 23:38 43.59025 -70.73016 4968 ft 250 kts 60°
2026-04-25 23:39 43.59848 -70.70911 4599 ft 249 kts 60°
2026-04-25 23:39 43.60676 -70.68819 4233 ft 247 kts 59°
2026-04-25 23:39 43.61498 -70.66769 3871 ft 245 kts 60°
2026-04-25 23:39 43.62323 -70.64710 3501 ft 244 kts 59°
2026-04-25 23:40 43.63147 -70.62653 3172 ft 243 kts 61°
2026-04-25 23:40 43.63878 -70.60564 2867 ft 241 kts 65°
2026-04-25 23:40 43.64556 -70.58486 2623 ft 239 kts 66°
2026-04-25 23:40 43.65193 -70.56396 2462 ft 233 kts 67°
2026-04-25 23:41 43.65778 -70.54369 2435 ft 220 kts 71°
2026-04-25 23:41 43.65860 -70.52357 2461 ft 205 kts 102°
2026-04-25 23:41 43.65483 -70.50516 2371 ft 193 kts 109°
2026-04-25 23:41 43.65110 -70.48809 2311 ft 178 kts 101°
2026-04-25 23:42 43.65032 -70.47188 2232 ft 165 kts 88°
2026-04-25 23:42 43.65155 -70.45569 1931 ft 168 kts 84°
2026-04-25 23:42 43.65249 -70.44033 1743 ft 158 kts 89°
2026-04-25 23:42 43.65255 -70.42516 1489 ft 154 kts 93°
2026-04-25 23:43 43.65193 -70.41044 1296 ft 159 kts 98°
2026-04-25 23:43 43.65063 -70.39539 1215 ft 147 kts 101°
2026-04-25 23:43 43.64967 -70.38226 888 ft 132 kts 95°
2026-04-25 23:43 43.64907 -70.36961 663 ft 137 kts 98°
2026-04-25 23:44 43.64783 -70.35571 515 ft 149 kts 99°
2026-04-25 23:44 43.64695 -70.34219 334 ft 134 kts 99°
2026-04-25 23:44 43.64607 -70.32961 146 ft 129 kts 98°
2026-04-25 23:44 43.64532 -70.31791 74 ft 112 kts 96°
2026-04-25 23:45 43.64474 -70.30955 59 ft 45 kts 94°
2026-04-25 23:45 43.64477 -70.30706 59 ft 13 kts 46°
2026-04-25 23:45 43.64506 -70.30692 59 ft 1 kts 356°
2026-04-25 23:45 43.64522 -70.30694 63 ft 5 kts 356°
2026-04-25 23:46 43.64557 -70.30705 60 ft 4 kts 336°
2026-04-25 23:46 43.64573 -70.30748 57 ft 7 kts 275°
2026-04-25 23:46 43.64586 -70.30815 62 ft 6 kts 318°
2026-04-25 23:46 43.64618 -70.30831 56 ft 5 kts 349°
2026-04-25 23:47 43.64641 -70.30835 60 ft 1 kts 352°
2026-04-25 23:47 43.64652 -70.30837 58 ft 0 kts 353°